UmKA 1 (RS40S)
1 57172U 23091G   26133.80922696  .00003638  00000-0  16988-3 0  9999
2 57172  97.5075 192.6453 0011597 234.7663 125.2487 15.20409140158785
CubeBel-2 (EU11S)
1 57175U 23091K   26133.81902418  .00007501  00000-0  27439-3 0  9999
2 57175  97.5075 196.7486 0009011 229.0050 131.0410 15.28320024159057
RS-38S
1 57189U 23091Z   26133.86795284  .00011053  00000-0  32864-3 0  9995
2 57189  97.5111 202.6937 0007738 181.8069 178.3147 15.34897409159425
SONATE-2
1 59112U 24043Q   26133.37741956  .00025296  00000-0  36180-3 0  9993
2 59112  97.5493 281.7198 0005913 330.7378  29.3544 15.56195234122476
GRBBeta
1 60237U 24128C   26132.97496547  .00002703  00000-0  19346-3 0  9998
2 60237  61.9907 339.7812 0045303 127.3925 233.1305 15.06341838100961
Curium One
1 60242U 24128H   26133.72000137  .00005439  00000-0  32120-3 0  9998
2 60242  61.9792 327.7990 0044762 123.8851 236.6515 15.11936527101244
ROBUSTA-3A
1 60243U 24128J   26133.73200933  .00005000  00000-0  30284-3 0  9999
2 60243  61.9869 330.0390 0045922 121.4004 239.1595 15.11114203101216
CatSat
1 60246U 24125J   26133.74759508  .00035519  00000-0  52648-3 0  9993
2 60246  97.2129 345.9004 0021364 310.8769  49.0634 15.54898656102034
HYPERVIEW-1G (RS66S)
1 61772U 24199AP  26133.80584720  .00070317  00000-0  63097-3 0  9993
2 61772  97.2950  11.9997 0007308  61.4032 298.7964 15.68041331129275
AO-123
1 61781U 24199AY  26133.88469977  .00005439  00000-0  16115-3 0  9999
2 61781  97.3051   2.8705 0015821  74.6310 285.6680 15.35153888128665
JINJUSat 1B
1 63210U 25052A   26133.15715823  .00010724  00000-0  34526-3 0  9990
2 63210  97.4048  29.8898 0002986 170.4887 189.6412 15.32388774 64739
NUSHSAT 1
1 63211U 25052B   26133.25381973  .00011947  00000-0  35878-3 0  9996
2 63211  97.4026  30.4397 0002671 168.1255 192.0052 15.34580943 64789
TEVEL2-4
1 63213U 25052D   26133.21703493  .00010134  00000-0  31672-3 0  9994
2 63213  97.3947  29.5787 0001650 172.9498 187.1768 15.33357973 64752
TEVEL2-5
1 63214U 25052E   26133.23382095  .00009736  00000-0  30587-3 0  9998
2 63214  97.3948  29.5530 0001624 172.1246 188.0022 15.33202499 64759
TEVEL2-6
1 63215U 25052F   26133.24530330  .00010305  00000-0  32396-3 0  9991
2 63215  97.3948  29.5493 0001699 177.1001 183.0252 15.33165748 64759
TEVEL2-1
1 63217U 25052H   26133.26274763  .00010080  00000-0  32184-3 0  9995
2 63217  97.3921  29.2310 0001142 196.4302 163.6903 15.32676115 64748
TEVEL2-3
1 63218U 25052J   26133.19327211  .00010063  00000-0  32083-3 0  9994
2 63218  97.3924  29.1793 0001100 196.7883 163.3323 15.32722625 64737
TEVEL2-2
1 63219U 25052K   26133.65494822  .00011271  00000-0  35936-3 0  9991
2 63219  97.3925  29.6243 0001198 196.2504 163.8700 15.32691211 64804
TEVEL2-9
1 63237U 25052AD  26133.26210256  .00009220  00000-0  31216-3 0  9993
2 63237  97.3984  28.6800 0004053 262.6955  97.3825 15.30804844 64689
TEVEL2-7
1 63238U 25052AE  26133.81967218  .00010058  00000-0  34295-3 0  9993
2 63238  97.3987  29.1658 0004148 260.2144  99.8628 15.30549458 64763
TEVEL2-8
1 63239U 25052AF  26133.43526882  .00009644  00000-0  32921-3 0  9993
2 63239  97.3987  28.7607 0004117 263.2616  96.8157 15.30523404 64707
HYDRA-W
1 63490U 25052BL  26113.93882235  .05662091  24406-5  29537-2 0  9997
2 63490  97.3690  18.2798 0008685 203.5899 156.4993 16.20186780 62336
HADES-ICM (SO-125)
1 63492U 25052BN  26133.22398907  .00715029  21932-3  18504-2 0  9997
2 63492  97.3775  37.3589 0009517 170.5862 189.5593 15.95048108 65271
SPIRONE
1 66657U 25274H   26133.34810266  .00001609  00000-0  15843-3 0  9995
2 66657  97.7479  63.1429 0013421 125.7300 234.5170 14.93397153 25025
K-HERO
1 66660U 25274L   26133.76442259  .00001287  00000-0  12640-3 0  9992
2 66660  97.7487  63.6887 0015221 128.9059 231.3521 14.93825452 25097
SNUGLITE-III DURI
1 66661U 25274M   26133.35141050  .00001359  00000-0  13299-3 0  9994
2 66661  97.7483  63.3007 0015802 131.5001 228.7578 14.93877191 25030
SilverSat
1 66909U 98067XV  26113.44966717  .07226154  12288-4  11979-2 0  9998
2 66909  51.6027 190.0749 0007952 333.4666  26.5949 16.32457272 22308
SAKHACUBE-CHOLBON
1 67290U 25313AU  26133.63601292  .00006315  00000-0  26147-3 0  9990
2 67290  97.3945 209.1190 0010926 115.9844 244.2520 15.24228298 20717
RS95S (QMR-KWT-2)
1 67291U 25313AV  26133.84946626  .00009041  00000-0  36069-3 0  9990
2 67291  97.3943 209.4410 0010641 114.9956 245.2389 15.25351946 20757
Ten-Koh2
1 68261U 25241B   26133.38478177  .00004296  00000-0  19169-3 0  9997
2 68261  51.6537 125.2128 0006290  35.2628 324.8765 15.23432375  9601
JACK-002
1 68417U 26067B   26133.38313817  .00004135  00000-0  20115-3 0  9991
2 68417  97.4543  92.4217 0003726  66.0402 294.1222 15.18944514  6663
DISCO 2
1 68431U 26067R   26133.39586231  .00004607  00000-0  22628-3 0  9995
2 68431  97.4580  92.4264 0004328 104.5015 255.6699 15.18547839  6668
HADES-SA (SpinnyONE)
1 68446U 26067AG  26132.83338234  .00011232  00000-0  55731-3 0  9990
2 68446  97.4387  91.6989 0006910 177.1746 182.9529 15.17853429  6567
PARUS-6U1
1 68456U 26067AS  26133.43395027  .00003618  00000-0  18567-3 0  9996
2 68456  97.4530  92.3479 0005913 164.9165 195.2246 15.17141812  6661
SAL-E
1 68458U 26067AU  26133.43325588  .00004975  00000-0  25328-3 0  9993
2 68458  97.4457  92.3084 0005845 173.7308 186.4000 15.17248037  6661
FSI-SAT 2
1 68792U 26088A   26133.35244097  .00002841  00000-0  19591-3 0  9998
2 68792  97.5026 283.5036 0013653 222.0292 137.9889 15.06538718  3043
OrigamiSat 2
1 68795U 26088D   26133.46544586  .00001710  00000-0  11495-3 0  9998
2 68795  97.5031 283.6619 0015457 193.7036 166.3775 15.07996689  3062
ARICA 2
1 68796U 26088E   26133.39761581  .00002278  00000-0  15122-3 0  9998
2 68796  97.5015 283.5936 0015522 192.2770 167.8082 15.08124366  3050
WASEDA-SAT-ZERO-II
1 68797U 26088F   26133.39680191  .00003196  00000-0  21000-3 0  9998
2 68797  97.5014 283.5947 0015518 192.0888 167.9971 15.08216041  3055
MANGARO-II-Piscus
1 68798U 26088G   26133.45868160  .00002021  00000-0  13312-3 0  9993
2 68798  97.5020 283.6679 0018828 195.8996 164.1643 15.08508848  3069
IO-86
1 40931U          25360.30710720  .00000000  00000-0  12800-3 0    00
2 40931   6.0006 332.5373 0012733 338.8432   8.1437 14.79075515    01
LILIUM-4                
1 71922C 26067AC  26089.50133053 -.00014632  00000+0 -74472-3 0    04
2 71922  97.4497  49.1617 0004341   5.9603 355.7042 15.16896692    16
